Location: Garos
(43.5000°N, 0.4667°W)
Time: 15:12:42
(UTC+00:00)

Meteor 2-12 Rocket - Pass Details

Date: 03 February 2023
Orbit: 935 x 958 km, 82.5° (Epoch: 23 March)

Event Time Altitude Azimuth Distance (km) Brightness Sun altitude
Rises 18:18:15 0° 354° (N) 3,619 7.4 -11.7°
Reaches altitude 10° 18:20:48 10° 358° (N) 2,667 6.7 -12.1°
Maximum altitude 18:26:49 60° 79° (ENE) 1,066 4.4 -13.2°
Drops below altitude 10° 18:32:46 10° 159° (SSE) 2,639 6.6 -14.3°
Sets 18:35:16 0° 162° (SSE) 3,578 7.4 -14.7°
